Regional Weather Roundup
Issued by NWS

Home | Current Version | Previous Version | Graphics & Text | Print | Product List | Glossary On
Versions: 1 2 3 4 5 6 7 8 9 10 11 12 13 14 15 16 17 18 19 20 21 22 23 24 25 26 27 28 29 30 31 32 33 34 35 36 37 38 39 40 41 42 43 44 45 46 47 48 49 50
486
ASUS43 KLMK 211502
RWRKY
KENTUCKY REGIONAL WEATHER ROUNDUP
NATIONAL WEATHER SERVICE LOUISVILLE KY
1100 AM EDT THU MAY 21 2015

NOTE "FAIR" INDICATES FEW OR NO CLOUDS BELOW 12,000 FEET
WITH NO SIGNIFICANT WEATHER AND/OR OBSTRUCTIONS TO VISIBILITY.

KYZ001>023-026-027-061>063-070>075-211600-
WESTERN AND SOUTH CENTRAL KENTUCKY

CITY           SKY/WX    TMP DP  RH WIND       PRES   REMARKS
PADUCAH        CLOUDY    53  42  66 NW10      30.17S
HENDERSON      CLOUDY    52  43  71 NW10      30.14R
OWENSBORO      CLOUDY    52  45  77 N12       30.13S
HOPKINSVILLE   NOT AVBL
BOWLING GREEN  CLOUDY    53  47  79 NW8       30.11S
GLASGOW        NOT AVBL
$$

KYZ024-025-028>034-038-045-046-053-211600-
NORTH CENTRAL KENTUCKY

CITY           SKY/WX    TMP DP  RH WIND       PRES   REMARKS
LOUISVILLE/SDF CLOUDY    55  46  71 N12       30.07F
LOUISVILLE/LOU CLOUDY    55  46  71 NW9       30.08S
FORT KNOX      CLOUDY    54  46  76 NW10      30.06F
$$

KYZ035>037-039>044-047>052-055>060-089>105-211600-
NORTHEAST KENTUCKY

CITY           SKY/WX    TMP DP  RH WIND       PRES   REMARKS
LEXINGTON      CLOUDY    54  47  77 NW8       30.05S
COVINGTON      CLOUDY    52  45  77 NW9       30.06R
FRANKFORT      CLOUDY    55  45  68 N8        30.05R HAZE
$$

KYZ054-064>069-076>088-106>120-211600-
SOUTHEAST KENTUCKY

CITY           SKY/WX    TMP DP  RH WIND       PRES   REMARKS
JACKSON        LGT RAIN  52  51  97 VRB3      30.02R VSB 1
LONDON         CLOUDY    55  48  77 NW9       30.05R
SOMERSET       NOT AVBL
MIDDLESBORO    CLOUDY    58  53  81 NW8       30.03S
MONTICELLO     CLOUDY    56  52  86 W8        30.09S
$$




USA.gov is the U.S. government's official web portal to all federal, state and local government web resources and services.